Wilmington, OH

10:48 AM EST on February 26, 2017 (GMT -0500)
Airborne

Weather History for KILN - January, 2012

Change the Weather History Date:

Tuesday, January 31, 2012

  Actual Average (KFFO) Record (KFFO)
Temperature  
Mean Temperature 51 °F -  
Max Temperature 59 °F 36 °F 62 °F (2002)
Min Temperature 43 °F 20 °F -5 °F (2004)
Degree Days  
Heating Degree Days 14    
Growing Degree Days 1 (Base 50)    
Moisture  
Dew Point 34 °F    
Average Humidity 58    
Maximum Humidity 89    
Minimum Humidity 40    
Precipitation  
Precipitation 0.16 in - - ()
Sea Level Pressure  
Sea Level Pressure 30.11 in    
Wind  
Wind Speed 16 mph (SSW)    
Max Wind Speed 26 mph    
Max Gust Speed 37 mph    
Visibility 10 miles    
Events Rain    
Averages and records for this station are not official NWS values.
T = Trace of Precipitation, MM = Missing Value Source: NWS Daily Summary

Daily Weather History Graph

Daily Weather History Graph

Search for Another Location

Airport or City:

Trip Planner

Search our weather history database for the weather conditions in past years. The results will help you decide how hot, cold, wet, or windy it might be!

Date:

Astronomy

Jan. 31, 2012 Rise Set
Actual Time 7:43 AM EST 5:53 PM EST
Civil Twilight 7:15 AM EST 6:22 PM EST
Nautical Twilight 6:43 AM EST 6:54 PM EST
Astronomical Twilight 6:11 AM EST 7:26 PM EST
Moon 11:43 AM EST (1/31) 1:30 AM EST (1/31)
Length of Visible Light 11h 06m
Length of Day
10h 09m
First Quarter, 55% of the Moon is Illuminated
Jan 31
First Quarter
Feb 7
Full
Feb 14
Last Quarter
Feb 21
New
Feb 29
First Quarter

Hourly Weather History & Observations

Time (EST) Temp. Windchill Dew Point Humidity Pressure Visibility Wind Dir Wind Speed Gust Speed Precip Events Conditions
12:54 AM 45.0 °F 37.6 °F 28.0 °F 52% 30.14 in 10.0 mi SSW 17.3 mph - N/A   Clear
1:54 AM 43.0 °F 36.0 °F 28.0 °F 56% 30.14 in 10.0 mi SSW 13.8 mph - N/A   Clear
2:54 AM 44.1 °F 37.4 °F 28.0 °F 53% 30.13 in 10.0 mi SSW 13.8 mph - N/A   Clear
3:54 AM 45.0 °F 37.9 °F 28.9 °F 53% 30.13 in 10.0 mi SW 16.1 mph - N/A   Clear
4:54 AM 45.0 °F 38.2 °F 28.9 °F 53% 30.13 in 10.0 mi SSW 15.0 mph - N/A   Clear
5:54 AM 44.1 °F 37.7 °F 28.0 °F 53% 30.15 in 10.0 mi SSW 12.7 mph - N/A   Partly Cloudy
6:54 AM 43.0 °F 37.2 °F 28.9 °F 58% 30.17 in 10.0 mi SSW 10.4 mph - N/A   Mostly Cloudy
7:54 AM 44.1 °F 39.0 °F 28.0 °F 53% 30.17 in 10.0 mi SSW 9.2 mph - N/A   Mostly Cloudy
8:54 AM 45.0 °F 39.7 °F 28.0 °F 52% 30.18 in 10.0 mi SSW 10.4 mph - N/A   Clear
10:54 AM 50.0 °F - 30.0 °F 46% 30.15 in 10.0 mi SW 19.6 mph 28.8 mph N/A   Scattered Clouds
11:54 AM 55.0 °F - 30.9 °F 40% 30.12 in 10.0 mi SW 26.5 mph 36.8 mph N/A   Scattered Clouds
12:54 PM 57.0 °F - 34.0 °F 42% 30.09 in 10.0 mi SW 24.2 mph 31.1 mph N/A   Partly Cloudy
1:54 PM 57.9 °F - 37.0 °F 46% 30.08 in 10.0 mi SW 20.7 mph 27.6 mph N/A   Mostly Cloudy
2:54 PM 59.0 °F - 37.9 °F 46% 30.05 in 10.0 mi SSW 17.3 mph 28.8 mph N/A   Overcast
3:54 PM 55.9 °F - 39.0 °F 53% 30.05 in 10.0 mi SSW 18.4 mph 29.9 mph N/A   Overcast
4:54 PM 53.1 °F - 43.0 °F 69% 30.06 in 10.0 mi SW 24.2 mph 32.2 mph 0.00 in   Overcast
5:54 PM 52.0 °F - 42.1 °F 69% 30.06 in 10.0 mi SSW 12.7 mph - N/A   Overcast
6:54 PM 52.0 °F - 39.0 °F 61% 30.06 in 10.0 mi SSW 12.7 mph - 0.00 in Rain Light Rain
7:54 PM 48.9 °F - 41.0 °F 74% 30.07 in 7.0 mi SSW 15.0 mph - 0.01 in Rain Light Rain
8:54 PM 48.0 °F - 41.0 °F 77% 30.07 in 7.0 mi SW 11.5 mph - 0.04 in Rain Light Rain
9:54 PM 46.9 °F - 42.1 °F 83% 30.08 in 10.0 mi SW 12.7 mph - 0.06 in Rain Light Rain
10:54 PM 46.0 °F 40.2 °F 43.0 °F 89% 30.08 in 7.0 mi SW 12.7 mph - 0.05 in Rain Light Rain
11:54 PM 46.9 °F - 41.0 °F 80% 30.05 in 10.0 mi SSW 16.1 mph - 0.01 in Rain Light Rain